Regional Weather Roundup
Issued by NWS

Home | Current Version | Previous Version | Graphics & Text | Print | Product List | Glossary On
Versions: 1 2 3 4 5 6 7 8 9 10 11 12 13 14 15 16 17 18 19 20 21 22 23 24 25 26 27
000
ASUS45 KTFX 170510
RWRMT
MONTANA REGIONAL WEATHER ROUNDUP
NATIONAL WEATHER SERVICE GREAT FALLS MT
1000 PM MST SAT DEC 16 2017

NOTE: "FAIR" INDICATES FEW OR NO CLOUDS BELOW 12000 FEET WITH NO
SIGNIFICANT WEATHER AND/OR OBSTRUCTIONS TO VISIBILITY.

MTZ001>007-043-170600-
WEST OF THE DIVIDE

CITY           SKY/WX    TMP DP  RH WIND       PRES   REMARKS
KALISPELL      FAIR      21  16  81 SE6       30.13S WCI  13
MISSOULA       FAIR      22  18  85 N3        30.18R
BUTTE          CLOUDY    10   7  87 CALM      30.05S
MULLAN PASS    CLOUDY    18  13  80 S5        30.04R HAZE
ANACONDA         N/A     10   3  72 CALM      30.06F
DEER LODGE       N/A      9   9 100 CALM      30.10S
EUREKA           N/A     27  18  69 MISG      30.12F
HAMILTON         N/A     25  12  58 CALM      30.16R
LIBBY            N/A     18  18 100 CALM      30.15R
RONAN            N/A     23  18  80 SE8       30.15F WCI  14
$$

MTZ008-052>055-170600-
SOUTHWEST MONTANA

CITY           SKY/WX    TMP DP  RH WIND       PRES   REMARKS
BOZEMAN        FOG       18  16  92 CALM      30.06F VSB<1/4
DILLON         CLOUDY    23  19  85 SW7       30.05R WCI  15
W YELLOWSTONE  FAIR       5   3  92 CALM      29.99S
ENNIS          CLOUDY    16  12  86 CALM      30.08F
$$

MTZ009-010-012-014-046-048-049-054-170600-
EAST SLOPES AND CENTRAL MONTANA

CITY           SKY/WX    TMP DP  RH WIND       PRES   REMARKS
CUT BANK       FAIR      23  14  68 W24       29.89F WCI   7
GREAT FALLS    FAIR      21  14  74 S10       29.98F WCI  10
HELENA         FAIR      22  14  71 S5        30.05S
CHOTEAU          N/A     21   9  58 W3        29.95F
RAYNESFORD     FAIR      24  16  71 SW10      29.98S WCI  13
$$

MTZ011-013-016-021-045-047-050-051-170600-
NORTH CENTRAL MONTANA

CITY           SKY/WX    TMP DP  RH WIND       PRES   REMARKS
HAVRE          CLOUDY    27  24  89 SW13      29.99S WCI  16
LEWISTOWN      FAIR      19  18  95 SE7       29.98F WCI  10
N BAR RANCH    FAIR      25  16  68 SW7       30.01F WCI  17
CHINOOK          N/A     27  27 100 CALM      29.99F
GEYSER         FAIR      19  13  79 W8        29.97F WCI   9
STANFORD       FAIR      19  12  73 W6        29.95F WCI  11
$$

MTZ017>020-022>027-061-062-170600-
NORTHEAST MONTANA

CITY           SKY/WX    TMP DP  RH WIND       PRES   REMARKS
GLASGOW        FAIR      22  17  81 S6        30.03S WCI  14
GLENDIVE       FAIR      21  17  84 W7        30.07S WCI  12
JORDAN           N/A     13   9  84 W5        30.05F
SIDNEY         FAIR      24  19  81 W7        30.06S WCI  16
WOLF POINT     FAIR      17  13  84 SW5       30.07R
MALTA          CLOUDY    23  19  86 CALM      30.03S
PLENTYWOOD       N/A     21  16  79 CALM      30.01R
POPLAR           N/A     19  16  86 CALM      30.06S
$$

MTZ028>42-056>058-170600-
SOUTHCENTRAL AND SOUTHEAST MONTANA

CITY           SKY/WX    TMP DP  RH WIND       PRES   REMARKS
BAKER          FAIR      26  24  92 CALM      30.06S
BILLINGS       FOG       26  26 100 SW6       30.06S VSB 1   WCI  19
LIVINGSTON     FOG       17  16  95 NW12      30.03F VSB 1/4 WCI   4
MILES CITY     CLOUDY    25  21  85 S3        30.08S
BIG TIMBER     FOG       23  23 100 W5        30.05F VSB 1/4
FORSYTH          N/A     28  25  86 CALM      30.07F
LAUREL           N/A     25  23  93 NW7       30.08S WCI  17
$$

REGIONAL REPORTS...DAKOTAS

CITY           SKY/WX    TMP DP  RH WIND       PRES   REMARKS
WILLISTON      FAIR      22  17  81 SW5       30.04S
MINOT          FAIR      26  19  74 SW8       30.00S WCI  18
DICKINSON      FAIR      25  21  85 W6        30.03R WCI  18
BEACH          MOCLDY    23  19  86 SW8       30.09R WCI  14
CROSBY         FAIR      23  18  80 SW14      30.01R WCI  11
TIOGA          FAIR      19  19 100 CALM      30.03R
BISMARCK       FAIR      27  25  92 SW6       30.07S WCI  20
GRAND FORKS    FAIR      14  12  92 S7        30.04R WCI   4
FARGO          FAIR      27  25  92 S8        30.08R WCI  19
BUFFALO SD       N/A     28  23  81 W6        30.00R WCI  22
RAPID CITY     CLOUDY    32  23  69 N5        30.06S
$$

REGIONAL REPORTS...WYOMING/IDAHO/WASHINGTON

CITY           SKY/WX    TMP DP  RH WIND       PRES   REMARKS
GILLETTE       LGT SNOW  27  25  92 N6        30.02R FOG     WCI  20
SHERIDAN       LGT SNOW  28  28 100 CALM      30.04S FOG
BUFFALO WY     LGT SNOW  27  22  81 CALM      30.02R
CODY           FLURRIES  23  20  88 NW5       30.01S
YELLOWSTONE LA   N/A      5   3  91 NW3       29.97R
IDAHO FALLS    CLOUDY    22  21  96 W6        30.09R WCI  14
SALMON         FAIR      17  12  80 SE5       30.15S
BOISE          FAIR      28  22  78 W8        30.19R WCI  20
SPOKANE        LGT SNOW  27  27 100 S5        30.21S FOG
$$

REGIONAL REPORTS...ALBERTA

CITY           SKY/WX    TMP DP  RH WIND       PRES   REMARKS
EDMONTON       CLEAR     25  12  58 SW9       29.70F WCI  15
CALGARY        PTCLDY    27   3  36 SW6       29.75F WCI  20
LETHBRIDGE     PTCLDY    25  12  58 SW15      29.85F WCI  12
MEDICINE HAT   CLEAR     27  21  80 S15       29.90F WCI  15
$$

REGIONAL REPORTS...SASKATCHEWAN

CITY           SKY/WX    TMP DP  RH WIND       PRES   REMARKS
SWIFT CURRENT  CLEAR     19  18  93 SW10      29.91F WCI   8
REGINA         CLEAR     21  16  79 SW12      29.93R WCI   9
SASKATOON      PTCLDY    19  16  86 SW10      29.88S WCI   8
$$




USA.gov is the U.S. government's official web portal to all federal, state and local government web resources and services.